Regional Weather Roundup
Issued by NWS

Home | Current Version | Previous Version | Text Only | Print | Product List | Glossary Off
Versions: 1 2 3 4 5 6 7 8 9 10 11 12 13 14 15 16 17 18 19 20 21 22 23 24 25 26 27 28 29 30 31 32 33 34 35 36 37 38 39 40 41 42 43 44 45 46 47 48 49

668
ASUS45 KBOU 250707
RWRCO

WEATHER ROUNDUP FOR COLORADO
NATIONAL WEATHER SERVICE DENVER/BOULDER CO
100 AM MDT TUE APR 25 2017

NOTE: "FAIR" INDICATES FEW OR NO CLOUDS BELOW 12000 FEET WITH NO
SIGNIFICANT WEATHER AND/OR OBSTRUCTIONS TO VISIBILITY.

COZ001>005-013-030-031-250800-
...NORTHWEST COLORADO...

CITY           SKY/WX    TMP DP  RH WIND       PRES   REMARKS
CRAIG          MOCLDY    36  32  85 NW7       29.72R
HAYDEN         CLOUDY    34  28  80 SW5       29.72R WCI  30
MEEKER         CLOUDY    37  35  92 SE5       29.72R
MOUNT WERNER   NOT AVBL
STEAMBOAT SPGS CLOUDY    32  32 100 CALM      29.71S
WALDEN           N/A     32  30  93 S3        29.68R
$$

COZ006>008-011-250800-
...WEST CENTRAL VALLEYS...

CITY           SKY/WX    TMP DP  RH WIND       PRES   REMARKS
GRAND JUNCTION CLOUDY    46  40  79 SE8       29.72R
MONTROSE       LGT RAIN  44  34  67 NW23G44   29.75R
EAGLE          LGT RAIN  38  33  82 SW12      29.76R
RIFLE          CLOUDY    42  38  85 E10       29.74F
DELTA          MOCLDY    53  29  40 W13G20    29.71R
NUCLA          CLOUDY    50  28  43 NW13G20   29.76R
$$

COZ017>023-064>068-250800-
...SOUTHWEST COLORADO...

CITY           SKY/WX    TMP DP  RH WIND       PRES   REMARKS
DURANGO        CLOUDY    45  31  58 SW5       29.70F
CORTEZ         FAIR      50  31  48 N13       29.71R
PAGOSA SPRINGS CLOUDY    44  31  60 CALM      29.75R
TELLURIDE      CLOUDY    41  29  62 W10G20    29.82R
WOLF CREEK PAS MOCLDY    27  27 100 S21G32    29.87S WCI  13
$$

COZ009-010-012-014-032>034-037-058>063-250800-
...CENTRAL COLORADO...

CITY           SKY/WX    TMP DP  RH WIND       PRES   REMARKS
ASPEN          LGT SNOW  32  31  96 N12G22    29.78R VSB 3/4 WCI  23
BUENA VISTA    MOCLDY    42  32  68 W10       29.64S
COPPER MTN     HVY SNOW  27  21  80 MISG      29.77R VSB 1/4
BERTHOUD PASS  HVY SNOW  19   9  63 MISG      29.73F VSB 1/4
COTTONWOOD PAS LGT SNOW  36  32  87 S9        29.70R
GUNNISON       FAIR      46  28  49 W9        29.68R
KREMMLING      LGT SNOW  37  34  87 SW3       29.74R
LEADVILLE      HVY SNOW  27  25  92 W23G35    29.74R VSB 1/4 WCI  12
MONARCH PASS     N/A     28  25  86 W44G51    29.86R WCI  10
SALIDA         MOCLDY    48  28  45 W7        29.70S
SUNLIGHT       CLOUDY    23  21  93 W14G28    29.81S WCI  11
WILKERSON PASS FAIR      30  25  80 SW15G24   29.74F WCI  19
$$

COZ069>075-250800-
...SAN LUIS VALLEY/SANGRE DE CRISTO MOUNTAINS...

CITY           SKY/WX    TMP DP  RH WIND       PRES   REMARKS
ALAMOSA        FAIR      40  27  59 SE8       29.68F
LA VETA PASS   FAIR      37  25  60 S21G37    29.85F
SAGUACHE       FAIR      43  28  56 W16       29.67F
$$

COZ035-036-038>040-250800-
...NORTHERN COLORADO FRONT RANGE...

CITY           SKY/WX    TMP DP  RH WIND       PRES   REMARKS
DENVER INTL AP CLOUDY    46  39  76 NW16      29.60R
DMNS CITY PARK   N/A     47  40  76 N9G21     29.59S
AURORA         CLOUDY    45  41  86 N18G25    29.60R
FRONT RANGE AP CLOUDY    45  41  87 N16       29.60R
ERIE MUNI ARPT LGT RAIN  45  42  91 NE8G16    29.58F
BOULDER MUN AP CLOUDY    45  43  93 E7        29.56F
CENTENNIAL     MOCLDY    46  39  76 N14       29.59R
BROOMFIELD     LGT RAIN  43  41  93 NE10      29.58F
FORT COLLINS   LGT RAIN  45  41  86 E13       29.55F
LONGMONT       LGT RAIN  46  43  90 E9        29.58F
$$

COZ041-046-047-076>085-087-088-250800-
...PIKES PEAK/PALMER DIVIDE AND SOUTHERN FOOTHILLS...

CITY           SKY/WX    TMP DP  RH WIND       PRES   REMARKS
COLO. SPRINGS  FAIR      49  36  61 NE3       29.55S
A. F. ACADEMY  FAIR      43  32  66 N9        29.55S
SCHRIEVER AFB  FAIR      46  36  67 NW8       29.55S
ELLICOTT       FAIR     N/A N/A N/A E9        29.53S
FALCON         FAIR      43  33  68 N6        29.58S
FORT CARSON    FAIR      49  34  56 CALM      29.53S
LIMON          FAIR      47  38  71 E12G23    29.51F
MONUMENT HILL  FAIR      32  30  93 NW9       29.61R WCI  24
TRINIDAD       FAIR      54  25  32 SW14      29.54F
$$

COZ042>045-048>051-090-091-250800-
...NORTHEAST COLORADO...

CITY           SKY/WX    TMP DP  RH WIND       PRES   REMARKS
GREELEY ARPT   NOT AVBL
AKRON          FAIR      46  41  82 E10       29.52F
BURLINGTON     NOT AVBL
WRAY           NOT AVBL
STERLING       CLOUDY    46  45  93 NW10      29.48F
HOLYOKE        FAIR      52  46  82 E9        29.53R
FORT MORGAN    CLOUDY    46  40  78 NW24G31   29.60R
$$

COZ086-089-092>099-250800-
...SOUTHEAST COLORADO...

CITY           SKY/WX    TMP DP  RH WIND       PRES   REMARKS
PUEBLO         FAIR      51  37  58 N8        29.47F
LA JUNTA       FAIR      58  32  37 W14       29.44F
LAMAR          FAIR      57  35  43 S10       29.40F
SPRINGFIELD      N/A     51  38  60 NW9       29.47F
$$




USA.gov is the U.S. government's official web portal to all federal, state and local government web resources and services.